Vorticity
nan nan nan nan nan nan nan nan nan nan nan nan nan nan nan nan nan nan nan nan nan nan nan nan nan nan nan nan nan nan nan nan nan nan nan nan nan nan nan nan nan nan nan nan nan nan nan nan nan nan nan nan nan nan nan nan nan nan nan nan nan nan nan nan nan nan nan nan nan nan nan nan nan nan nan nan nan nan nan nan nan nan nan nan nan nan
nan 8 14 16 9 2 8 15 10 6 5 5 6 9 11 9 8 10 14 13 11 9 9 11 13 14 16 22 24 19 13 11 10 9 9 8 8 8 8 8 8 8 7 7 6 6 6 6 6 6 6 6 7 8 9 9 10 10 9 9 9 8 8 8 7 6 6 6 7 7 7 7 7 7 7 7 7 7 8 8 9 9 9 8 8 nan
nan 8 11 14 11 6 6 14 12 11 8 8 9 11 11 8 6 7 10 12 11 10 9 11 13 14 14 18 24 21 15 12 12 11 10 9 9 9 8 8 8 8 7 7 6 6 6 6 6 6 6 7 8 8 9 9 9 9 9 9 8 8 8 7 6 6 6 6 6 6 7 7 7 7 7 7 7 7 8 8 8 9 8 7 7 nan
nan 8 9 11 12 11 9 14 15 14 12 12 14 15 10 5 6 8 10 11 11 10 10 12 12 12 12 16 23 24 17 11 12 11 10 9 9 9 9 8 8 8 7 7 7 6 6 6 6 6 7 7 8 8 9 9 9 9 8 8 8 7 7 6 6 6 6 6 6 6 6 6 6 7 7 7 8 8 8 8 8 8 7 7 7 nan
nan 6 9 9 11 13 13 12 15 15 14 13 13 13 9 6 7 9 11 12 11 10 10 11 12 11 10 14 21 26 19 9 9 9 9 9 8 8 8 8 8 8 7 7 7 7 6 6 6 7 7 8 8 9 10 10 9 9 8 8 7 7 6 6 6 6 6 6 6 6 6 6 6 7 7 8 8 8 8 8 9 8 7 7 7 nan
nan 7 10 11 12 12 11 8 12 13 13 11 10 10 10 10 9 10 11 12 11 10 9 11 12 12 12 14 20 26 20 10 8 7 8 8 8 8 8 7 7 7 6 6 6 6 6 6 6 6 7 8 9 10 10 10 10 9 8 7 7 6 6 6 6 6 6 6 6 6 6 6 7 7 8 8 8 8 9 9 9 8 8 7 7 nan
nan 8 9 11 12 11 9 7 9 9 9 8 8 9 10 11 10 11 11 11 11 10 10 10 11 13 14 16 20 23 20 15 12 10 10 9 8 8 7 7 6 6 6 6 6 6 6 6 6 6 7 8 9 10 10 10 10 9 8 7 7 6 6 6 6 6 6 6 6 6 6 7 7 8 8 8 9 9 9 9 8 8 8 7 7 nan
nan 7 8 8 8 7 6 7 10 9 7 6 8 8 9 9 9 10 12 12 11 10 10 9 9 10 12 15 17 16 15 16 16 16 16 16 14 12 10 8 6 6 5 6 6 6 6 5 6 6 7 8 9 10 10 10 9 8 7 7 6 6 6 6 6 6 6 6 6 6 7 7 8 8 9 9 9 9 9 8 8 8 7 7 7 nan
nan 6 8 9 7 4 3 6 9 11 8 7 9 9 9 8 7 8 9 11 11 11 10 10 8 8 8 11 13 13 12 10 11 13 14 15 17 18 16 13 11 10 8 7 6 6 5 5 5 6 7 8 9 10 10 9 9 8 7 7 6 6 6 6 6 6 6 6 6 7 7 8 9 9 9 9 9 9 9 8 8 7 7 7 7 nan
nan 8 9 10 9 8 7 9 10 12 11 10 9 9 10 9 8 7 7 8 9 10 11 12 10 8 7 7 10 12 12 12 11 9 7 7 9 12 13 11 11 15 13 8 6 5 5 5 6 6 7 9 10 10 10 9 8 7 7 6 6 6 6 7 7 7 7 7 7 7 8 9 9 10 9 9 9 9 9 8 8 8 7 7 7 nan
nan 14 11 9 9 10 11 12 13 15 15 11 8 7 8 10 9 9 8 7 7 8 9 11 11 9 8 7 9 10 10 12 15 15 15 13 10 9 8 8 9 13 13 9 7 5 5 5 6 7 9 10 10 10 10 9 8 7 7 6 6 7 7 7 8 8 8 8 8 9 9 10 10 9 9 9 8 8 8 8 8 8 8 7 7 nan
nan 14 12 10 7 8 9 9 10 15 16 11 7 6 8 10 9 10 10 9 10 10 9 9 10 11 11 10 9 9 8 9 11 14 18 20 18 15 12 13 15 16 16 14 13 12 10 9 8 9 10 11 12 10 9 9 9 8 7 7 7 7 8 8 8 8 8 9 9 9 10 10 9 9 9 8 8 8 8 8 8 8 8 7 7 nan
nan 10 11 10 8 6 6 5 5 10 13 12 10 9 9 10 11 11 12 12 11 11 12 11 11 11 13 12 12 11 10 9 8 9 11 13 13 14 13 13 14 16 17 16 17 19 18 16 16 15 13 13 13 12 10 8 8 8 7 7 7 8 8 9 9 9 9 9 9 9 10 9 9 9 8 8 8 8 8 8 8 7 7 7 7 nan
nan 8 10 11 11 9 8 7 6 7 9 10 10 9 10 13 15 13 11 11 11 14 15 13 11 10 11 13 14 13 11 9 8 8 8 9 9 10 10 9 10 11 12 12 13 16 17 16 18 22 21 17 16 16 14 12 10 9 8 8 8 9 9 9 9 9 9 9 9 9 9 9 9 8 8 8 8 8 8 8 7 7 7 7 7 nan
nan 3 1 6 9 10 11 10 9 8 7 8 10 10 11 13 15 13 9 9 9 11 13 13 11 10 8 11 13 14 12 9 8 8 8 8 9 10 10 8 8 9 10 10 10 14 15 12 13 17 22 19 15 13 12 12 12 11 9 9 9 10 10 9 9 8 8 8 8 8 9 9 8 8 8 8 8 8 8 8 7 7 7 7 8 nan
nan 3 2 3 5 9 11 11 10 10 9 10 11 11 10 10 11 11 9 8 7 8 9 10 9 8 7 9 12 13 12 9 8 8 8 7 9 11 11 9 8 8 10 10 10 12 13 12 12 12 17 17 13 8 6 7 10 10 10 10 10 10 10 9 8 7 7 8 8 8 9 9 9 8 8 8 8 8 8 8 7 7 8 7 8 nan
nan 8 13 11 9 9 11 11 11 11 11 11 11 9 8 8 9 10 10 8 7 7 8 8 6 6 8 10 12 14 12 8 7 8 9 9 10 11 11 10 8 8 9 10 10 11 11 11 11 12 16 17 13 9 7 7 8 9 10 10 10 10 9 8 7 7 7 8 8 9 9 9 9 9 8 8 8 8 8 8 8 8 8 8 8 nan
nan 9 13 14 13 11 10 11 11 10 10 11 11 11 9 9 10 12 11 9 8 8 9 6 5 5 9 12 15 17 13 8 6 7 8 9 10 12 11 10 9 9 9 10 10 10 10 10 10 10 13 15 12 9 8 8 9 10 10 10 9 8 7 6 6 6 8 9 9 10 10 10 9 9 8 8 8 8 8 8 8 8 8 8 8 nan
nan 12 13 13 12 11 10 11 11 11 9 10 12 12 11 10 10 9 10 9 9 10 9 7 6 5 7 12 17 20 15 9 6 6 7 9 9 11 12 11 10 9 9 10 10 10 10 11 13 11 8 8 8 8 8 8 9 10 10 9 8 7 6 6 6 7 9 10 10 11 10 10 9 9 8 8 8 8 8 8 8 8 8 8 9 nan
nan 12 13 13 10 9 12 15 14 11 10 11 11 11 11 11 10 7 8 9 8 8 9 10 9 8 8 13 17 19 14 9 8 8 9 9 9 10 12 12 10 8 8 10 10 10 9 10 13 17 16 12 9 8 8 9 9 9 9 8 7 6 6 6 7 8 10 11 11 11 10 9 9 9 8 8 8 8 8 8 8 8 8 9 9 nan
nan 9 11 7 6 9 15 18 17 15 13 12 11 8 9 10 10 8 8 9 9 8 8 10 10 10 11 14 16 16 12 8 7 7 10 10 8 9 11 13 12 10 8 9 10 11 10 9 10 15 19 16 12 10 9 10 10 10 9 8 7 6 6 7 8 9 10 10 10 10 9 9 9 8 8 8 8 8 8 8 8 8 8 9 9 nan
nan 12 14 9 5 6 10 15 18 18 16 10 5 5 10 12 10 9 8 9 10 11 9 10 11 13 14 16 16 15 11 8 8 8 11 10 8 9 11 12 12 11 10 10 11 11 10 9 10 13 16 14 10 8 9 10 11 11 10 9 8 7 7 7 8 9 9 9 9 9 9 8 8 8 9 9 8 8 8 8 8 9 9 9 9 nan
nan 14 16 15 11 7 5 9 15 19 16 10 6 4 11 16 13 11 10 9 9 9 10 12 13 13 14 15 14 13 10 9 10 12 13 12 9 10 11 12 11 10 10 11 12 12 11 9 11 14 20 17 9 7 8 10 11 12 11 10 9 9 8 8 8 9 9 8 8 8 8 8 8 8 8 9 9 9 9 9 9 9 9 10 10 nan
nan 15 14 15 15 12 10 12 14 15 13 10 9 10 13 15 16 17 16 15 12 11 10 10 9 9 11 12 11 10 8 8 9 11 12 12 11 11 12 13 12 10 10 10 11 12 11 9 10 12 21 23 15 10 9 10 11 12 12 12 11 10 9 8 8 8 8 8 8 7 8 8 8 8 8 8 8 9 9 9 10 10 10 10 10 nan
nan 11 9 11 14 15 15 17 16 14 11 10 10 11 13 15 15 16 17 16 14 12 11 8 7 6 8 8 7 8 7 7 8 9 10 11 11 11 12 14 13 12 9 9 11 12 10 9 9 11 16 23 21 16 11 11 11 13 13 13 12 11 10 8 8 8 7 7 7 7 7 8 8 8 8 8 8 8 9 9 10 10 10 11 11 nan
nan 4 -0 4 12 17 18 16 16 14 8 5 8 10 11 10 10 10 11 11 10 9 6 4 6 6 7 8 9 9 9 7 8 8 9 11 11 10 10 13 13 12 10 9 11 12 10 8 8 9 11 17 20 21 15 12 12 14 14 14 13 12 10 9 8 7 6 6 6 6 6 7 7 8 8 8 8 9 9 10 10 10 10 13 16 nan
nan 14 10 13 18 21 20 16 16 15 9 5 7 7 5 5 6 7 7 8 8 7 3 3 5 6 8 9 10 11 11 9 7 7 8 10 11 10 10 11 12 11 10 9 11 11 9 8 8 9 9 11 15 19 19 15 14 15 16 15 14 12 10 9 7 6 6 6 6 6 6 7 7 8 8 9 9 9 9 10 10 11 12 17 22 nan
nan 37 39 39 35 28 21 17 16 15 12 10 7 -2 -7 -2 4 6 6 8 9 7 6 6 6 7 9 10 10 12 11 10 9 8 8 8 10 11 12 11 11 10 9 9 10 11 10 9 9 10 10 10 12 17 22 21 20 20 19 17 14 12 10 8 7 7 7 7 7 7 7 7 8 8 9 9 9 9 10 10 11 15 20 21 21 nan
nan 35 43 46 41 32 24 20 21 21 18 11 2 -12 -16 -5 4 8 10 10 9 8 8 8 7 9 11 12 11 11 11 11 11 9 7 6 8 11 13 11 10 9 9 8 9 10 11 12 11 11 13 13 12 15 22 25 24 24 24 22 18 15 11 9 8 8 9 9 9 9 9 9 9 9 9 9 9 10 10 10 13 18 24 22 16 nan
nan 15 22 26 27 25 21 21 25 27 23 10 -2 -13 -12 0 9 14 15 12 9 8 9 9 9 9 10 10 10 10 12 14 14 11 7 5 8 11 12 10 9 9 8 8 8 10 11 12 12 11 13 14 12 12 15 19 18 18 20 21 21 19 15 12 11 11 12 12 12 12 12 11 11 11 10 10 10 10 11 11 13 16 19 17 13 nan
nan 6 7 9 12 14 14 15 19 21 17 6 -4 -7 1 11 17 18 16 12 9 9 9 10 10 10 7 6 7 9 13 18 17 11 6 5 9 12 12 9 8 9 8 8 9 10 11 11 11 11 11 12 11 10 9 10 10 10 11 13 16 17 16 15 14 15 17 16 15 14 13 12 12 11 11 11 11 12 12 12 12 12 12 12 11 nan
nan 8 8 8 8 9 10 10 10 10 8 3 1 4 11 16 18 18 14 11 10 10 11 11 11 10 7 6 8 9 14 21 21 13 4 4 9 13 12 10 9 9 9 9 9 10 11 10 10 10 9 10 9 9 9 8 8 8 8 9 11 13 15 18 19 20 21 21 19 17 14 13 12 11 10 11 11 12 13 13 12 9 7 10 10 nan
nan 9 10 10 9 10 10 10 9 8 7 7 8 10 11 13 14 14 12 12 12 13 13 12 11 9 7 6 8 11 16 22 23 16 3 1 8 12 12 11 10 9 9 9 9 10 10 11 10 10 9 10 10 9 10 10 9 9 9 9 9 12 16 19 21 21 20 21 22 21 20 18 16 14 13 12 12 13 14 15 12 8 3 6 9 nan
nan 10 10 9 9 10 10 10 10 9 9 10 11 11 11 11 11 10 11 12 13 14 15 13 11 10 6 4 6 10 15 21 23 15 2 0 8 12 13 10 9 9 9 8 8 8 10 11 10 9 10 11 11 11 11 11 11 11 11 11 10 12 15 17 17 16 16 16 17 19 21 21 20 20 19 17 16 15 14 14 13 10 3 -0 3 nan
nan 9 9 8 8 9 9 9 10 9 10 10 11 11 11 11 10 9 10 11 12 14 15 15 13 12 9 7 8 10 14 19 20 11 2 2 8 12 13 11 10 9 9 8 8 8 10 11 10 8 8 9 10 11 11 11 11 12 12 13 12 12 12 12 11 11 12 12 12 13 15 16 18 19 20 17 14 12 11 12 12 11 7 -1 -3 nan
nan 9 8 8 8 9 9 9 8 8 9 9 9 10 11 11 10 10 10 10 11 12 12 14 15 15 16 15 14 14 15 17 17 10 3 4 8 11 12 12 11 10 9 8 9 9 11 12 11 9 8 7 8 10 11 12 12 12 12 12 12 11 10 9 9 8 9 9 9 9 10 11 12 13 14 11 10 11 13 13 12 11 10 6 1 nan
nan 9 8 8 9 9 8 8 8 8 8 8 10 10 11 11 11 11 10 11 12 11 10 11 13 15 21 23 22 21 19 17 15 13 8 7 9 10 12 14 14 10 8 9 9 10 10 10 10 10 11 10 8 8 9 11 11 11 11 10 9 8 8 9 9 8 8 8 8 8 8 9 10 11 12 14 17 21 23 23 21 18 15 14 11 nan
nan 9 9 8 9 9 9 9 9 9 9 10 10 10 10 12 12 11 10 10 11 12 11 9 10 10 17 23 23 23 21 18 15 14 11 9 9 10 12 15 14 11 9 11 11 11 10 9 9 9 11 12 11 9 8 9 10 10 9 8 8 8 9 10 11 11 10 11 10 9 9 10 11 12 13 18 21 23 23 25 24 23 23 24 23 nan
nan 10 10 10 10 10 10 10 10 10 10 11 12 12 11 10 9 9 10 9 10 11 12 12 10 8 9 13 15 16 15 13 12 11 9 8 9 11 12 13 12 10 10 11 11 12 11 10 9 8 9 10 11 11 10 10 9 8 8 9 11 13 13 12 12 12 12 12 12 12 13 13 11 11 11 13 14 14 14 16 19 20 21 23 25 nan
nan 10 11 11 10 11 12 12 11 11 11 12 11 10 9 8 6 6 8 9 9 8 8 10 10 8 7 7 7 8 9 9 10 9 7 8 10 12 13 12 11 10 9 9 11 11 10 9 9 9 8 7 8 8 7 8 6 4 5 9 12 13 12 10 10 10 11 10 11 11 11 11 10 9 10 9 9 10 10 11 13 15 15 13 15 nan
nan 11 11 11 11 12 12 12 12 13 12 10 9 8 8 8 7 7 7 7 7 7 6 5 6 7 7 7 7 8 9 10 10 8 9 11 11 12 13 12 11 11 10 9 10 10 9 8 8 8 8 8 7 8 8 8 6 5 7 9 9 7 7 8 10 12 11 11 11 11 9 10 11 12 11 11 11 11 10 9 8 9 10 11 11 nan
nan 10 10 11 11 11 12 13 13 12 10 10 10 10 9 8 9 9 8 7 7 8 8 8 7 7 6 6 7 8 9 9 9 9 10 10 10 10 11 11 11 11 11 10 10 10 9 8 8 8 8 8 8 9 10 10 11 12 11 8 7 8 12 17 17 16 13 11 12 12 12 11 12 13 12 12 12 12 12 9 6 4 6 9 10 nan
nan 11 12 12 12 13 13 10 9 8 8 9 10 10 9 10 12 12 9 9 10 10 9 9 9 9 8 8 7 7 8 9 10 10 8 8 8 9 9 10 10 10 11 10 10 10 10 9 8 8 8 7 7 7 8 10 12 14 13 9 8 9 13 16 14 13 11 10 10 11 13 12 11 11 12 11 11 12 13 12 12 11 9 9 9 nan
nan 12 12 12 11 11 10 9 8 9 10 10 10 9 10 12 12 10 8 10 11 10 8 9 9 10 10 10 9 9 9 9 10 10 11 10 7 7 8 8 9 9 10 10 9 9 10 11 10 9 9 8 7 7 8 9 10 11 11 11 9 7 5 4 5 6 6 8 9 10 10 11 11 11 12 12 11 11 11 13 14 15 14 11 10 nan
nan 12 11 10 10 11 10 10 10 10 11 10 10 10 10 11 10 8 9 11 11 9 9 9 8 8 10 10 10 10 10 9 10 10 14 16 11 5 3 6 7 8 9 9 8 8 9 10 10 9 10 10 9 8 8 9 9 9 10 11 11 9 6 3 4 5 6 8 9 10 11 11 11 11 11 12 11 10 10 11 11 11 12 12 11 nan
nan 12 10 10 11 12 10 9 9 10 11 11 10 9 9 9 9 11 12 10 10 9 9 9 9 9 11 11 10 10 10 10 10 10 11 13 12 10 8 7 7 7 7 8 8 8 8 8 8 8 8 10 11 11 10 9 9 9 10 11 11 11 11 10 10 10 10 9 11 12 14 12 11 11 10 10 11 11 12 12 12 11 11 11 10 nan
nan 11 10 9 10 10 10 10 10 10 11 10 9 9 9 10 11 11 11 10 9 10 10 9 10 11 12 11 10 10 11 10 10 10 11 12 12 12 11 12 11 9 8 9 9 9 9 9 8 7 7 8 11 13 13 12 11 10 10 11 11 10 10 11 12 12 12 11 11 12 13 11 10 9 9 10 11 12 13 14 14 13 11 10 10 nan
nan 10 10 10 10 10 10 10 10 10 10 9 9 9 10 12 12 10 9 10 10 10 9 9 10 12 12 11 12 12 12 11 10 11 11 12 12 12 11 11 12 12 11 11 12 12 12 11 9 7 7 7 8 9 11 12 12 11 11 11 11 10 9 9 11 12 12 11 11 11 11 10 10 9 10 10 10 10 11 12 13 13 12 10 10 nan
nan 11 10 10 10 10 10 11 10 10 10 9 9 9 12 14 12 7 7 10 9 9 9 10 11 11 11 11 12 13 11 10 10 11 11 11 11 10 9 9 10 10 11 12 12 13 15 17 15 12 8 5 4 5 8 10 11 11 11 11 11 10 11 10 11 11 11 11 11 11 11 11 12 11 11 9 8 8 9 11 12 13 13 11 10 nan
nan 12 11 11 11 11 11 11 11 10 10 10 9 9 10 10 10 9 10 10 10 10 10 11 11 11 11 11 11 11 10 9 10 10 10 10 11 10 10 9 9 9 10 10 10 11 15 19 23 26 20 10 2 -0 5 9 10 11 11 11 11 12 12 11 12 12 11 11 12 11 10 10 11 11 10 10 9 9 10 11 13 14 14 13 12 nan
nan nan nan nan nan nan nan nan nan nan nan nan nan nan nan nan nan nan nan nan nan nan nan nan nan nan nan nan nan nan nan nan nan nan nan nan nan nan nan nan nan nan nan nan nan nan nan nan nan nan nan nan nan nan nan nan nan nan nan nan nan nan nan nan nan nan nan nan nan nan nan nan nan nan nan nan nan nan nan nan nan nan nan nan nan nan
CAPE
1 nan nan nan nan nan nan nan nan nan nan nan nan nan nan nan nan nan nan nan nan nan nan nan nan nan nan nan nan nan nan nan nan nan nan nan nan nan nan nan nan nan nan nan nan nan nan nan nan nan nan nan nan nan nan nan nan nan nan nan nan nan nan nan nan nan 0 2 4 4 7 11 16 16 19 20 22 22 23 25 25 27 26 29 29 35
1 nan nan nan nan nan nan nan nan nan nan nan nan nan nan nan nan nan nan nan nan nan nan nan nan nan nan nan nan nan nan nan nan nan nan nan nan nan nan nan nan nan nan nan nan nan nan nan nan nan nan nan nan nan nan nan nan nan nan nan nan nan nan nan nan nan 0 2 5 5 6 9 14 14 15 17 17 17 19 21 21 22 23 29 29 40
3 nan nan nan nan nan nan nan nan nan nan nan nan nan nan nan nan nan nan nan nan nan nan nan nan nan nan nan nan nan nan nan nan nan nan nan nan nan nan nan nan nan nan nan nan nan nan nan nan nan nan nan nan nan nan nan nan nan nan nan nan nan nan nan nan nan 0 1 4 4 6 8 11 11 13 13 15 15 17 19 19 20 25 36 36 52
3 nan nan nan nan nan nan nan nan nan nan nan nan nan nan nan nan nan nan nan nan nan nan nan nan nan nan nan nan nan nan nan nan nan nan nan nan nan nan nan nan nan nan nan nan nan nan nan nan nan nan nan nan nan nan nan nan nan nan nan nan nan nan nan nan nan 0 2 4 4 5 8 9 9 10 11 12 12 16 19 19 21 28 44 44 67
1 nan nan nan nan nan nan nan nan nan nan nan nan nan nan nan nan nan nan nan nan nan nan nan nan nan nan nan nan nan nan nan nan nan nan nan nan nan nan nan nan nan nan nan nan nan nan nan nan nan nan nan nan nan nan nan nan nan nan nan nan nan nan nan nan nan 0 2 4 4 6 7 7 7 8 9 13 13 17 21 21 24 32 46 46 64
0 0 nan nan nan nan nan nan nan nan nan nan nan nan nan nan nan nan nan nan nan nan nan nan nan nan nan nan nan nan nan nan nan nan nan nan nan nan nan nan nan nan nan nan nan nan nan nan nan nan nan nan nan nan nan nan nan nan nan nan nan nan 0 0 0 0 1 2 4 4 5 5 4 4 5 9 14 14 20 23 23 25 31 42 42 59
nan nan nan nan nan nan nan nan nan nan nan nan nan nan nan nan nan nan nan nan nan nan nan nan nan nan nan nan nan nan nan nan nan nan nan nan nan nan nan nan nan nan nan nan nan nan nan nan nan nan nan nan nan nan nan nan nan nan nan nan nan nan 0 0 0 1 2 4 5 5 5 3 2 2 4 9 15 15 20 23 23 26 29 38 38 50
nan nan nan nan nan nan nan nan nan nan nan nan nan nan nan nan nan nan nan nan nan nan nan nan nan nan nan nan nan nan nan nan nan nan nan nan nan nan nan nan nan nan nan nan nan nan nan nan nan nan nan nan nan nan nan nan nan nan nan nan nan nan 0 1 1 2 4 6 5 5 2 1 1 1 4 9 12 12 16 21 21 26 28 32 32 36
nan nan nan nan nan nan nan nan nan nan nan nan nan nan nan nan nan nan nan nan nan nan nan nan nan nan nan nan nan nan nan nan nan nan nan nan nan nan nan nan nan nan nan nan nan nan nan nan nan nan nan nan nan nan nan nan nan nan nan nan nan nan 0 1 1 2 4 4 3 3 1 1 3 3 6 9 11 11 14 18 18 25 28 30 30 30
nan nan nan nan nan nan nan nan nan nan nan nan nan nan nan nan nan nan nan nan nan nan nan nan nan nan nan nan nan nan nan nan nan nan nan nan nan nan nan nan nan nan nan nan nan nan nan nan nan nan nan nan nan nan nan nan nan nan nan nan nan nan nan 1 1 2 3 3 2 2 2 3 6 6 9 10 11 11 13 19 19 25 27 33 33 37
nan nan nan nan nan nan nan nan nan nan nan nan nan nan nan nan nan nan nan nan nan nan nan nan nan nan nan nan nan nan nan nan nan nan nan nan nan nan nan nan nan nan nan nan nan nan nan nan nan nan nan nan nan nan nan nan nan nan nan nan nan nan nan 1 1 2 2 2 1 1 3 7 10 10 13 11 11 11 13 19 19 26 29 38 38 51
nan nan nan nan nan nan nan nan nan nan nan nan nan nan nan nan nan nan nan nan nan nan nan nan nan nan nan nan nan nan nan nan nan nan nan nan nan nan nan nan nan nan nan nan nan nan nan nan nan nan nan nan nan nan nan nan nan nan nan nan nan nan 0 0 0 1 1 1 2 2 5 9 13 13 14 13 12 12 17 24 24 29 35 44 44 52
nan nan nan nan nan nan nan nan nan nan nan nan nan nan nan nan nan nan nan nan nan nan nan nan nan nan nan nan nan nan nan nan nan nan nan nan nan nan nan nan nan nan nan nan nan nan nan nan nan nan nan nan nan nan nan nan nan nan nan nan nan nan 0 0 0 1 1 1 3 3 8 11 13 13 14 13 13 13 18 25 25 28 36 39 39 47
nan nan nan nan nan nan nan nan nan nan nan nan nan nan nan nan nan nan nan nan nan nan nan nan nan nan nan nan nan nan nan nan nan nan nan nan nan nan nan nan nan nan nan nan nan nan nan nan nan nan nan nan nan nan nan nan nan nan nan nan nan nan 0 0 0 1 1 3 6 6 9 11 13 13 13 12 14 14 17 23 23 25 30 33 33 38
nan nan nan nan nan nan nan nan nan nan nan nan nan nan nan nan nan nan nan nan nan nan nan nan nan nan nan nan nan nan nan nan nan nan nan nan nan nan nan nan nan nan nan nan nan nan nan nan nan nan nan nan nan nan nan nan nan nan nan nan nan nan 0 1 1 1 3 4 7 7 9 11 11 11 12 12 13 13 16 17 17 19 23 29 29 33
nan nan nan nan nan nan nan nan nan nan nan nan nan nan nan nan nan nan nan nan nan nan nan nan nan nan nan nan nan nan nan nan nan nan nan nan nan nan nan nan nan nan nan nan nan nan nan nan nan nan nan nan nan nan nan nan nan nan nan nan nan 0 0 1 1 2 4 6 7 7 10 9 10 10 11 11 14 14 14 15 15 16 22 27 27 29
nan nan nan nan nan nan nan nan nan nan nan nan nan nan nan nan nan nan nan nan nan nan nan nan nan nan nan nan nan nan nan nan nan nan nan nan nan nan nan nan nan nan nan nan nan nan nan nan nan nan nan nan nan nan nan nan nan nan nan nan nan 0 1 2 2 3 5 7 8 8 9 9 8 8 9 10 13 13 14 15 15 18 22 25 25 26
nan nan nan nan nan nan nan nan nan nan nan nan nan nan nan nan nan nan nan nan nan nan nan nan nan nan nan nan nan nan nan nan nan nan nan nan nan nan nan nan nan nan nan nan nan nan nan nan nan nan nan nan nan nan nan nan nan nan nan 0 0 1 2 3 3 4 5 7 8 8 9 8 8 8 8 10 11 11 12 16 16 19 24 27 27 27
nan nan nan nan nan nan nan nan nan nan nan nan nan nan nan nan nan nan nan nan nan nan nan nan nan nan nan nan nan nan nan nan nan nan nan nan nan nan nan nan nan nan nan nan nan nan nan nan nan nan nan nan nan nan nan nan nan nan nan 0 0 1 2 4 4 5 6 7 8 8 8 7 7 7 8 9 11 11 12 15 15 20 24 28 28 29
nan nan nan nan nan nan nan nan nan nan nan nan nan nan nan nan nan nan nan nan nan nan nan nan nan nan nan nan nan nan nan nan nan nan nan nan nan nan nan nan nan nan nan nan nan nan nan nan nan nan nan nan nan nan nan nan nan nan 0 1 1 2 3 4 4 4 4 6 7 7 7 8 7 7 7 9 10 10 12 16 16 22 25 29 29 32
nan nan nan nan nan nan nan nan nan nan nan nan nan nan nan nan nan nan nan nan nan nan nan nan nan nan nan nan nan nan nan nan nan nan nan nan nan nan nan nan nan nan nan nan nan nan nan nan nan nan nan nan nan nan nan nan nan nan 1 2 2 3 3 3 3 3 2 3 5 5 6 7 7 7 8 8 9 9 12 17 17 21 26 27 27 28
nan nan nan nan nan nan nan nan nan nan nan nan nan nan nan nan nan nan nan nan nan nan nan nan nan nan nan nan nan nan nan nan nan nan nan nan nan nan nan nan nan nan nan nan nan nan nan nan nan nan nan nan nan nan nan nan nan 0 2 3 3 3 3 2 2 2 2 2 3 3 5 7 7 7 7 8 10 10 12 16 16 21 24 26 26 29
nan nan nan nan nan nan nan nan nan nan nan nan nan nan nan nan nan nan nan nan nan nan nan nan nan nan 1 1 nan nan nan nan nan nan nan nan nan nan nan nan nan nan nan nan nan nan nan nan nan nan nan nan nan nan nan nan nan 0 2 3 3 3 3 1 1 0 1 1 2 2 3 5 8 8 8 8 10 10 12 16 16 19 21 22 22 24
nan nan nan nan nan nan nan nan nan nan nan nan nan nan nan nan nan nan nan nan nan nan nan 4 4 6 5 2 nan nan nan nan nan nan nan nan nan nan nan nan nan nan nan nan nan nan nan nan nan nan nan nan nan nan nan nan nan nan 0 1 1 2 2 0 0 0 1 1 2 2 2 4 6 6 9 9 10 10 13 15 15 16 18 20 20 21
nan nan nan nan nan nan nan nan nan nan nan nan nan nan nan nan nan nan nan nan nan nan 2 2 2 2 3 4 nan nan nan nan nan nan nan nan nan nan nan nan nan nan nan nan nan nan nan nan nan nan nan nan nan nan nan nan nan nan nan 0 0 0 1 0 0 0 1 2 3 3 4 4 6 6 9 11 12 12 14 15 15 15 18 18 18 20
nan nan nan nan nan nan nan nan nan nan nan nan nan nan nan nan nan nan nan nan nan 1 1 0 0 0 1 1 nan nan nan nan nan nan nan nan nan nan nan nan nan nan nan nan nan nan nan nan nan nan nan nan nan nan nan nan nan nan nan nan nan 0 0 0 0 1 1 3 5 5 6 6 7 7 9 10 13 13 16 17 17 18 19 19 19 22
nan nan nan nan nan nan nan nan nan nan nan nan nan nan nan nan nan nan nan 0 0 0 nan nan nan nan 0 nan nan nan nan nan nan nan nan nan nan nan nan nan nan nan nan nan nan nan nan nan nan nan nan nan nan nan nan nan nan nan nan nan nan nan 0 1 1 2 2 4 5 5 5 6 8 8 10 11 13 13 15 17 17 20 20 17 17 17
nan nan nan nan nan nan nan nan nan nan nan 0 0 0 nan nan nan nan nan nan nan nan nan nan nan nan nan nan nan nan nan nan nan nan nan nan nan nan nan nan nan nan nan nan nan nan nan nan nan nan nan nan nan nan nan nan nan nan nan nan nan nan 1 1 1 2 3 4 5 5 6 7 8 8 9 11 11 11 13 17 17 17 20 11 11 nan
nan nan nan nan nan nan nan nan nan nan nan 0 0 0 nan nan nan nan nan nan nan nan nan nan nan nan nan nan nan nan nan nan nan nan nan nan nan nan nan nan nan nan nan nan nan nan nan nan nan nan nan nan nan nan nan nan nan nan nan nan nan nan 0 1 1 1 2 3 4 4 5 6 7 7 9 12 11 11 10 16 16 17 12 2 2 nan
nan nan nan nan nan nan nan nan nan nan 0 1 1 1 nan nan nan nan nan nan nan nan nan nan nan nan nan nan nan nan nan nan nan nan nan nan nan nan nan nan nan nan nan nan nan nan nan nan nan nan nan nan nan nan nan nan nan nan nan nan nan nan nan nan nan nan 0 1 2 2 3 5 6 6 8 9 10 10 12 17 17 12 0 nan nan nan
nan nan nan nan nan nan nan nan nan nan 1 2 2 2 nan nan nan nan nan nan nan nan nan nan nan nan nan nan nan nan nan nan nan nan nan nan nan nan nan nan nan nan nan nan nan nan nan nan nan nan nan nan nan nan nan nan nan nan nan nan nan nan nan nan nan nan nan nan 0 0 0 1 3 3 4 6 8 8 10 16 16 9 nan nan nan nan
nan nan nan nan nan nan nan nan nan nan nan nan nan nan nan nan nan nan nan nan nan nan nan nan nan nan nan nan nan nan nan nan nan nan nan nan nan nan nan nan nan nan nan nan nan nan nan nan nan nan nan nan nan nan nan nan nan nan nan nan nan nan nan nan nan nan nan nan nan nan nan nan nan nan 0 1 2 2 4 7 7 7 nan nan nan nan
nan nan nan nan nan nan nan nan nan nan nan nan nan nan nan nan nan nan nan nan nan nan nan nan nan nan nan nan nan nan nan nan nan nan nan nan nan nan nan nan nan nan nan nan nan nan nan nan nan nan nan nan nan nan nan nan nan nan nan nan nan nan nan nan nan nan nan nan nan nan nan nan nan nan nan nan 0 0 1 4 4 7 2 nan nan nan
nan nan nan nan nan nan nan nan nan nan nan nan nan nan nan nan nan nan nan nan nan nan nan nan nan nan nan nan nan nan nan nan nan nan nan nan nan nan nan nan nan nan nan nan nan nan nan nan nan nan nan nan nan nan nan nan nan nan nan nan nan nan nan nan nan nan nan nan nan nan nan nan nan nan nan nan nan nan nan 0 0 3 6 nan nan nan
nan nan nan nan nan nan nan nan nan nan nan nan nan nan nan nan nan nan nan nan nan nan nan nan nan nan nan nan nan nan nan nan nan nan nan nan nan nan nan nan nan nan nan nan nan nan nan nan nan nan nan nan nan nan nan nan nan nan nan nan nan nan nan nan nan nan nan nan nan nan nan nan nan nan nan nan nan nan nan 0 0 1 4 7 7 1
nan nan nan nan nan nan nan nan nan nan nan nan nan nan nan nan nan nan nan nan nan nan nan nan nan nan nan nan nan nan nan nan nan nan nan nan nan nan nan nan nan nan nan nan nan nan nan nan nan nan nan nan nan nan nan nan nan nan nan nan nan nan nan nan nan nan nan nan nan nan nan nan nan nan nan nan nan nan nan 1 1 1 3 7 7 9
nan nan nan nan nan nan nan nan nan nan nan nan nan nan nan nan nan nan nan nan nan nan nan nan nan nan nan nan nan nan nan nan nan nan nan nan nan nan nan nan nan nan nan nan nan nan nan nan nan nan nan nan nan nan nan nan nan nan nan nan nan nan nan nan nan nan nan nan nan nan nan nan nan nan nan nan nan nan nan 0 0 0 1 3 3 6
nan nan nan nan nan nan nan nan nan nan nan nan nan nan nan nan nan nan nan nan nan nan nan nan nan nan nan nan nan nan nan nan nan nan nan nan nan nan nan nan nan nan nan nan nan nan nan nan nan nan nan nan nan nan nan nan nan nan nan nan nan nan nan nan nan nan nan nan nan nan nan nan nan nan nan nan nan nan nan nan nan nan nan nan nan 1
nan nan nan nan nan nan nan nan nan nan nan nan 0 0 nan nan nan nan nan nan nan nan nan nan nan nan nan nan nan nan nan nan nan nan nan nan nan nan nan nan nan nan nan nan nan nan nan nan nan nan nan nan nan nan nan nan nan nan nan nan nan nan nan nan nan nan nan nan nan nan nan nan nan nan nan nan nan nan nan nan nan nan nan nan nan nan
nan nan nan 0 0 nan nan nan nan nan nan 0 1 1 nan nan nan nan nan nan nan nan nan nan nan nan nan nan nan nan nan nan nan nan nan nan nan nan nan nan nan nan nan nan nan nan nan nan nan nan nan nan nan nan nan nan nan nan nan nan nan nan nan nan nan nan nan nan nan nan nan nan nan nan nan nan nan nan nan nan nan nan nan nan nan nan
nan nan nan 0 0 0 0 nan nan nan nan nan nan nan nan nan nan nan nan nan nan nan nan nan nan nan nan nan nan nan nan nan nan nan nan nan nan nan nan nan nan nan nan nan nan nan nan nan nan nan nan nan nan nan nan nan nan nan nan nan nan nan nan nan nan nan nan nan nan nan nan nan nan nan nan nan nan nan nan nan nan nan nan nan nan nan
nan nan nan nan nan nan nan nan 0 0 nan nan nan nan nan nan nan nan nan nan nan nan nan nan nan nan nan nan nan nan nan nan nan nan nan nan nan nan nan nan nan nan nan nan nan nan nan nan nan nan nan nan nan nan nan nan nan nan nan nan nan nan nan nan nan nan nan nan nan nan nan nan nan nan nan nan nan nan nan nan nan nan nan nan nan nan
nan nan nan nan nan nan 0 0 0 0 nan nan nan nan nan nan nan nan nan nan nan nan nan nan nan nan nan nan nan nan nan nan nan nan nan nan nan nan nan nan nan nan nan nan nan nan nan nan nan nan nan nan nan nan nan nan nan nan nan nan nan nan nan nan nan nan nan nan nan nan nan nan nan nan nan nan nan nan nan nan nan nan nan nan nan nan
nan nan nan nan nan nan 0 0 nan nan nan nan nan nan nan nan nan nan nan nan nan nan nan nan nan nan nan nan nan nan nan nan nan nan nan nan nan nan nan nan nan nan nan nan nan nan nan nan nan nan nan nan nan nan nan nan nan nan nan nan nan nan nan nan nan nan nan nan nan nan nan nan nan nan nan nan nan nan nan nan nan nan nan nan nan nan
nan nan nan nan nan nan nan nan nan nan nan nan nan nan nan nan nan nan nan nan nan nan nan nan nan nan nan nan nan nan nan nan nan nan nan nan nan nan nan nan nan nan nan nan nan nan nan nan nan nan nan 1 0 0 nan nan nan nan nan nan nan nan nan nan nan nan nan nan nan nan nan nan nan nan nan nan nan nan nan nan nan nan nan nan nan nan
nan nan nan nan nan nan 0 nan nan nan nan nan nan nan nan nan nan nan nan nan nan nan nan nan nan nan nan nan nan nan nan nan nan nan nan nan nan nan nan nan nan nan nan nan nan nan nan nan nan 1 3 1 0 0 nan nan nan nan nan nan nan nan nan nan nan nan nan nan nan nan nan nan nan nan nan nan nan nan nan nan nan nan nan nan nan nan
nan nan nan nan nan nan nan nan nan nan nan nan nan nan nan nan nan nan nan nan nan nan nan nan nan nan nan nan nan nan nan nan nan nan nan nan nan nan nan nan nan nan nan nan nan 1 7 4 4 6 8 3 nan nan nan nan nan nan nan nan nan nan nan nan nan nan nan nan nan nan nan nan nan nan nan nan nan nan nan nan nan nan nan nan nan nan
nan nan nan nan nan nan nan nan nan nan nan nan nan nan nan nan nan nan nan nan nan nan nan nan nan nan nan nan nan nan nan nan nan nan nan nan nan nan nan nan nan 1 8 6 6 3 nan nan nan nan 6 2 0 0 nan nan nan nan nan nan nan nan nan nan nan nan nan nan nan nan nan nan nan nan nan nan nan nan nan nan nan nan nan nan nan nan
nan nan nan nan nan nan nan nan nan nan nan nan nan nan nan 1 3 3 nan nan nan nan nan nan nan nan nan nan nan nan nan nan nan nan nan nan nan nan nan nan nan nan nan nan nan nan nan nan nan nan nan 0 nan nan nan nan nan nan nan nan nan nan nan nan nan nan nan nan nan nan nan nan nan nan nan nan nan nan nan nan nan nan nan nan nan nan
nan nan nan nan nan nan nan nan nan nan nan nan nan nan nan nan nan nan nan nan nan nan nan nan nan nan nan nan nan nan nan nan nan nan nan nan nan nan nan nan nan nan nan nan nan nan nan nan nan nan nan nan nan nan nan nan nan nan nan nan nan nan nan nan nan nan nan nan nan nan nan nan nan nan nan nan nan nan nan nan nan nan nan nan nan nan
nan nan nan nan nan nan nan nan nan nan nan nan nan nan nan nan nan nan nan nan nan nan nan nan nan nan nan nan nan nan nan nan nan nan nan nan nan nan nan nan nan nan nan nan nan nan nan nan nan nan nan 0 nan nan nan nan nan nan nan nan nan nan nan nan nan nan nan nan nan nan nan nan nan nan nan nan nan nan nan nan nan nan nan nan nan nan